Tracking 32954 objects as of 19-Jan-2026
HD Live streaming from Space Station
objects crossing your sky now

COSMOS 2299

Track COSMOS 2299 now!
10-day predictions
COSMOS 2299 is classified as:


NORAD ID: 23441
Int'l Code: 1994-086A
Perigee: 1,408.7 km
Apogee: 1,420.3 km
Inclination: 82.6 °
Period: 113.9 minutes
Semi major axis: 7785 km
RCS: 1.0821 m2 (large)
Launch date: December 26, 1994
Source: Commonwealth of Independent States (former USSR) (CIS)
Launch site: PLESETSK MISSILE AND SPACE COMPLEX (PKMTR)
Your satellite tracking list
Your tracking list is empty




NASA's NSSDC Master Catalog

Two Line Element Set (TLE):
1 23441U 94086A   26019.51178080  .00000018  00000-0  39028-4 0  9994
2 23441  82.5679  32.1213 0007439 168.9568 191.1689 12.63793913432920
Source of the keplerian elements: AFSPC